Location: Johnson City
(36.3130°N, 82.3540°W)
Time: 15:01:43
(UTC-05:00)

OTV 5 (USA 277) - Visible Passes

Search period start: 16 December 2018 00:00
Search period end: 26 December 2018 00:00
Orbit: 340 x 348 km, 54.5° (Epoch: 10 December)

Date Brightness Start Highest point End Pass type
(mag) Time Alt. Az. Time Alt. Az. Time Alt. Az.
16 Dec ? 05:30:07 22° E 05:30:07 22° E 05:31:36 10° ESE visible
16 Dec ? 07:02:06 10° W 07:03:42 14° SW 07:05:19 10° SSW visible
17 Dec ? 05:53:25 43° SSE 05:53:25 43° SSE 05:55:31 10° SE visible
18 Dec ? 06:16:48 14° SW 06:16:48 14° SW 06:17:51 10° SSW visible
22 Dec ? 19:27:33 10° SSW 19:27:51 12° SSW 19:27:51 12° SSW visible
23 Dec ? 18:17:56 10° SSE 18:19:24 13° SE 18:19:47 13° ESE visible
24 Dec ? 18:39:58 10° SSW 18:42:48 52° SE 18:43:06 49° ESE visible
25 Dec ? 19:03:45 10° WSW 19:06:21 34° NW 19:06:21 34° NW visible
